Theta_e
299 298 298 298 298 298 298 298 298 299 299 300 300 301 301 302 302 303 306 307 307 309 311 311 310 310 310 311 311 312 312 313 313 313 313 313 313 313 312 313 314 314 312 310 310 307 307 303 302 301 300 299 298 297 296 295 295 295 294 293 292 292 291 292 293 293 291 289 290 289 289 291 291 292 292 292 291 291 290 290 290 290 290 290 290
297 296 297 297 297 297 297 297 297 296 297 298 299 300 300 301 302 303 304 305 306 306 309 310 310 311 310 311 311 311 309 309 310 311 311 312 310 310 309 309 311 311 310 309 309 308 305 303 301 300 299 298 298 297 296 295 295 295 294 292 292 291 291 293 293 292 288 287 286 287 287 289 290 290 290 290 291 290 290 290 290 290 290 290 290
295 295 295 295 295 296 296 296 296 296 296 297 297 298 299 300 301 302 302 303 303 304 304 307 309 310 309 308 308 308 309 309 309 308 309 309 308 307 307 307 306 306 306 306 308 308 306 303 301 300 298 298 297 296 295 294 295 294 293 293 291 290 290 293 293 292 287 287 287 286 283 284 287 286 288 289 291 289 289 289 290 290 290 289 290
293 293 293 294 294 294 294 295 295 296 296 296 296 296 298 298 299 300 300 301 302 302 302 305 307 308 307 307 306 304 303 305 306 305 305 306 305 305 305 306 305 304 305 304 305 306 306 304 302 299 298 297 297 296 295 294 294 294 294 292 292 290 290 292 293 291 289 289 284 285 284 284 283 284 285 287 289 289 289 289 289 290 289 289 289
292 292 292 292 292 292 293 294 295 295 295 295 295 295 297 297 298 298 299 299 300 301 302 302 304 304 305 304 303 303 303 302 302 301 302 302 302 303 303 305 305 303 303 303 303 304 303 304 302 299 299 297 297 296 295 295 295 295 295 292 291 291 290 290 291 291 290 292 289 285 284 284 283 284 285 285 287 287 288 289 289 289 289 289 288
292 291 291 292 292 292 292 292 293 294 294 295 295 295 295 296 297 297 298 299 299 300 300 301 301 301 300 298 297 298 298 299 299 300 300 300 300 302 303 303 303 303 302 302 301 301 301 302 301 300 299 298 297 296 295 294 294 294 294 294 292 291 291 290 290 291 291 291 290 288 287 284 284 284 284 280 285 286 287 287 288 288 288 288 288
292 292 292 291 291 291 291 291 292 292 293 294 295 295 295 295 295 296 296 297 299 299 300 299 299 299 300 299 298 298 297 299 299 299 299 299 300 301 301 302 302 301 301 301 300 300 300 300 300 299 298 298 297 296 295 294 295 295 294 294 293 292 290 289 290 290 290 290 292 293 291 289 289 285 282 281 279 283 285 286 286 287 287 287 288
291 290 291 291 291 290 290 291 292 292 293 293 294 294 294 294 294 295 295 296 296 297 298 299 298 298 298 298 298 297 297 297 298 298 298 297 297 299 299 300 300 300 299 299 300 299 299 299 298 298 298 296 296 296 296 295 295 295 294 294 293 292 291 290 289 290 289 289 291 291 291 291 291 289 287 285 282 280 281 285 285 287 287 288 288
290 290 290 290 290 290 291 291 291 292 292 292 292 293 294 294 294 294 294 295 295 296 296 297 297 297 297 297 296 297 297 297 298 298 297 296 297 296 297 297 298 298 299 298 298 299 297 297 297 297 297 296 295 296 295 295 294 293 293 293 293 292 292 291 290 289 290 289 288 289 290 290 288 288 291 289 281 281 280 282 283 285 286 286 287
291 291 290 290 291 290 290 290 291 291 292 293 292 292 293 293 293 293 293 294 294 294 295 295 295 295 295 295 295 295 296 297 296 296 296 296 295 296 296 296 295 296 297 297 297 297 297 296 296 296 296 296 295 294 293 294 294 294 294 293 293 292 292 291 291 290 290 290 289 290 290 288 287 287 288 289 287 285 283 281 283 283 282 285 287
291 291 291 291 290 290 290 290 290 290 291 291 291 291 291 292 292 292 292 293 294 294 294 293 294 294 294 294 293 293 294 295 294 294 294 295 295 295 295 295 295 294 295 295 296 296 296 296 295 295 295 295 295 294 294 293 293 293 293 293 293 292 292 291 291 290 290 290 289 289 290 291 290 288 288 289 289 286 283 283 284 284 284 282 285
290 290 290 290 289 289 289 289 289 289 289 290 290 290 290 290 291 290 291 291 292 293 293 293 293 293 293 293 293 293 293 293 293 293 293 293 293 293 294 294 294 294 294 294 294 294 295 295 294 294 294 294 295 295 294 294 293 292 292 292 292 292 292 291 290 290 289 289 289 289 290 291 291 289 289 290 290 287 288 284 283 283 283 284 285
289 288 288 288 288 288 288 288 288 288 288 288 289 289 289 289 289 289 289 290 291 291 291 291 291 292 292 292 292 292 292 292 292 292 292 292 292 293 293 292 293 293 293 292 292 293 294 293 293 293 294 294 294 294 294 293 292 292 292 291 291 291 291 291 290 290 290 289 289 289 290 290 290 290 289 289 289 289 287 283 284 285 282 283 283
288 288 287 287 287 287 287 287 287 287 287 288 288 288 288 288 288 288 288 289 290 290 290 290 290 290 291 291 291 291 291 291 291 291 292 292 292 292 292 292 292 292 293 293 294 293 293 293 294 293 293 293 293 293 293 292 292 291 291 291 290 291 291 290 291 290 290 290 289 288 288 289 290 290 289 288 288 287 285 286 285 284 281 283 282
287 287 286 287 287 287 287 287 287 287 287 287 288 288 288 287 287 287 287 288 289 289 289 289 289 290 290 290 290 291 290 291 291 291 291 291 292 292 292 292 291 292 292 293 294 294 293 293 293 293 293 292 292 292 294 292 291 292 291 290 290 290 290 290 290 289 290 289 288 288 288 288 289 289 290 289 289 289 288 286 286 284 281 281 281
287 286 286 286 287 287 287 287 287 287 287 287 287 287 287 287 286 286 286 287 287 288 288 288 288 289 289 289 289 289 289 290 290 290 290 291 290 291 291 291 291 291 292 292 293 293 293 293 292 292 292 292 291 291 291 290 290 290 290 289 289 290 289 288 289 288 289 289 288 288 288 288 288 288 289 290 289 289 289 288 288 287 284 280 279
285 285 285 286 286 286 286 286 286 286 286 286 287 287 287 287 286 286 286 286 286 287 287 287 287 287 287 287 288 288 288 288 288 288 289 290 290 290 289 290 290 291 292 292 292 292 292 292 292 292 291 291 290 290 289 288 288 289 289 288 288 288 288 288 288 288 288 288 288 288 289 289 287 287 288 289 289 289 289 289 289 289 287 284 280
285 285 285 285 286 285 286 286 286 286 287 286 286 286 286 287 286 286 285 284 284 285 285 286 285 285 285 285 286 286 286 286 287 287 287 287 288 288 289 289 289 290 290 291 290 290 289 290 290 290 289 288 288 288 287 287 287 288 288 288 288 287 287 287 287 287 287 287 287 287 288 288 288 287 287 287 287 289 288 288 289 289 289 287 283
285 285 285 286 285 285 285 285 286 287 288 287 288 288 286 285 284 285 285 285 283 284 283 284 284 285 285 284 283 284 285 285 285 286 286 286 286 287 287 287 288 289 289 288 288 287 287 288 287 288 288 288 287 287 287 286 286 287 287 288 287 286 287 287 287 287 287 287 286 286 286 287 287 286 286 286 286 287 288 286 288 289 286 289 285
285 285 285 285 285 285 285 285 285 286 286 287 287 287 286 286 284 283 282 282 283 283 283 282 282 282 282 281 281 282 283 283 284 285 284 285 285 286 286 285 286 286 286 286 286 286 287 287 287 287 287 287 287 286 286 286 286 287 287 287 287 286 286 286 287 286 287 287 286 286 286 286 286 285 286 286 286 286 286 286 286 286 286 285 285
284 284 284 285 285 285 286 286 286 286 286 286 286 286 286 285 284 283 283 282 282 282 282 282 282 282 282 281 281 280 281 281 281 282 282 283 284 284 284 285 284 284 284 285 285 285 286 286 286 286 287 287 287 287 287 285 285 286 286 286 286 285 286 286 286 286 286 285 285 286 286 286 284 285 286 286 285 285 285 285 285 285 285 284 284
284 284 284 285 285 286 285 286 286 285 285 284 285 284 283 282 283 283 283 282 281 281 280 281 281 282 280 282 281 281 281 280 279 280 280 281 282 283 284 284 284 284 284 284 284 284 284 284 284 285 285 286 286 286 286 286 286 286 286 287 287 285 285 285 285 285 285 286 286 285 286 285 284 285 286 286 286 285 284 285 285 284 284 284 284
285 284 284 285 285 285 285 285 284 284 284 285 285 284 284 283 282 282 280 280 281 281 281 280 280 279 280 279 279 280 280 279 279 279 279 280 280 281 283 283 284 284 284 284 284 284 284 283 283 283 283 284 284 285 285 286 286 286 286 286 286 285 285 285 285 285 285 285 285 285 285 285 285 285 285 286 286 285 285 285 285 284 284 284 284
284 284 283 283 284 285 285 284 284 284 283 284 284 284 284 283 282 282 280 280 281 281 281 281 280 279 279 279 279 279 278 278 278 279 279 280 280 280 280 281 281 282 282 283 284 284 284 284 283 283 283 283 283 283 284 284 285 285 285 285 285 285 285 285 285 285 285 285 285 285 285 285 284 285 285 285 285 285 285 285 285 285 285 285 284
282 282 282 282 283 284 283 283 283 282 283 283 283 283 282 282 281 281 281 281 281 281 281 281 280 279 279 279 278 279 279 278 278 278 278 278 279 280 280 280 280 280 280 281 282 281 282 282 283 283 282 282 283 283 283 284 285 284 285 285 284 284 285 285 285 285 286 285 285 285 285 284 284 284 285 285 284 284 285 285 285 285 285 285 285
282 281 281 281 281 282 281 282 282 282 282 282 282 282 282 282 281 282 281 282 282 282 280 280 280 279 280 279 279 279 280 279 279 278 278 278 279 278 279 280 280 280 279 279 280 280 281 281 281 281 281 282 282 282 283 284 284 285 285 285 284 284 284 284 285 285 285 285 286 285 285 285 285 285 285 285 284 284 284 284 284 285 285 285 284
280 280 280 280 281 281 281 282 281 281 281 282 281 281 281 281 281 281 281 281 280 280 279 278 279 278 278 278 278 278 279 279 279 279 278 278 278 278 279 279 280 280 280 280 280 280 280 280 281 281 281 281 282 282 283 283 283 284 284 285 285 284 284 285 285 285 285 285 285 285 285 285 285 285 285 285 285 284 285 284 285 285 285 284 284
280 280 281 280 280 281 281 281 281 281 281 281 283 283 282 281 280 280 280 280 280 278 277 277 277 278 277 278 278 278 279 279 279 278 278 277 277 277 277 278 279 280 280 280 279 279 280 280 280 280 281 281 281 281 282 282 283 283 284 284 284 284 285 285 284 285 285 285 285 285 285 285 285 286 286 285 285 285 285 284 285 284 284 284 284
280 280 280 280 280 280 280 280 280 281 282 282 282 281 280 280 279 279 279 279 279 278 277 277 277 277 277 277 278 278 279 279 279 279 279 278 278 277 277 277 278 279 280 280 280 279 279 279 279 279 280 280 281 281 282 282 282 282 283 283 284 284 284 284 284 284 285 285 285 285 285 285 286 286 287 287 287 287 286 285 285 284 284 284 284
280 280 280 280 280 280 280 279 280 281 281 280 280 280 280 280 280 280 279 279 280 278 278 277 278 278 278 278 278 278 278 278 278 279 278 278 278 277 277 277 277 278 279 279 279 279 279 279 279 279 279 280 281 281 284 286 288 285 283 284 284 284 284 284 284 284 284 285 285 285 285 286 286 286 286 287 288 288 288 287 286 285 284 284 284
279 279 279 279 279 279 279 279 279 280 280 280 281 280 280 280 279 279 279 279 279 278 277 276 277 278 278 278 278 278 278 278 278 278 278 277 277 277 276 276 276 277 277 278 278 278 278 278 278 279 279 279 280 281 285 287 288 288 286 284 284 283 283 284 284 284 284 284 285 285 285 285 285 285 286 287 288 288 289 289 289 288 287 285 284
279 279 278 279 279 279 279 279 279 280 280 280 280 280 280 279 279 279 279 279 279 278 277 277 277 277 277 277 277 277 277 277 277 277 277 277 277 276 276 276 276 275 276 276 276 277 277 277 278 278 278 279 279 283 285 286 287 287 287 285 283 283 283 283 283 283 284 284 284 284 285 285 285 285 285 285 286 287 288 288 289 289 288 289 288
279 279 278 278 279 279 280 280 280 281 280 280 280 280 279 279 280 280 279 279 278 277 277 277 277 277 277 277 277 277 277 277 277 277 277 277 276 276 275 275 275 275 275 275 275 276 276 276 277 276 277 278 278 283 284 285 286 286 287 286 284 283 282 283 283 283 283 283 284 284 284 285 285 285 285 285 284 284 286 288 288 288 288 289 289
278 279 280 280 281 281 282 282 281 280 280 281 282 281 280 280 280 279 278 277 277 277 277 277 277 277 277 277 277 276 276 277 277 277 277 276 276 275 275 275 274 274 274 274 274 274 275 275 276 276 276 277 277 281 283 284 284 285 286 285 283 283 282 282 282 283 283 283 283 283 283 284 284 285 285 285 284 284 284 284 284 285 286 286 288
278 279 280 282 282 282 281 280 281 282 282 282 281 281 280 279 278 277 276 276 276 276 277 277 277 277 277 276 276 276 276 276 276 276 276 276 276 275 275 274 274 274 273 273 273 273 274 274 275 275 275 275 276 280 282 283 283 284 285 285 283 282 282 282 282 283 283 283 283 283 283 283 284 284 284 285 284 284 284 284 284 284 284 285 285
278 279 280 282 283 282 282 282 283 282 281 280 279 279 277 277 276 276 275 275 275 275 276 276 276 276 276 276 275 275 275 275 275 275 274 274 274 274 274 274 274 273 273 273 273 273 273 273 273 274 274 274 275 280 281 281 282 283 284 282 281 281 281 282 282 282 282 283 283 283 283 283 283 284 285 287 287 285 284 283 283 283 283 284 284
279 280 281 281 281 281 280 279 279 278 278 278 277 276 275 275 275 274 273 274 274 274 274 274 274 275 275 275 274 274 273 273 273 273 272 272 272 273 273 273 272 272 272 272 272 272 272 272 272 273 273 273 274 277 279 280 281 282 282 280 280 281 281 281 281 281 282 282 283 283 283 283 283 283 286 287 288 288 284 283 283 282 283 283 283
279 279 279 279 279 279 280 280 277 277 277 276 276 275 275 274 273 273 272 272 272 272 273 273 273 273 273 272 272 272 272 271 271 270 270 271 271 271 271 272 271 271 270 271 271 271 271 271 271 271 272 272 272 275 278 279 280 281 280 278 278 279 279 279 279 280 281 281 282 284 284 283 283 283 286 287 288 287 284 284 283 282 282 281 282
279 279 278 278 279 278 278 277 276 275 275 275 274 273 273 272 272 271 271 270 270 271 271 270 270 271 270 270 270 270 270 269 269 269 268 268 268 268 269 270 269 269 269 270 270 270 270 270 271 271 274 273 272 274 277 278 278 279 278 276 276 276 277 278 279 279 280 280 281 282 284 284 284 284 287 288 288 287 284 284 283 282 281 281 282
278 278 278 278 278 277 276 275 274 273 273 273 272 272 270 270 270 270 269 269 269 269 269 269 268 268 268 268 268 267 267 266 266 265 265 265 266 266 267 267 267 267 267 268 268 269 268 269 270 270 270 270 270 270 272 276 277 277 278 275 274 274 273 275 277 278 278 279 280 280 282 286 287 288 288 288 288 288 285 284 284 282 281 281 283
277 278 280 276 276 276 274 273 273 272 272 272 270 269 268 268 268 268 267 268 268 268 267 267 266 266 265 265 265 264 264 264 264 263 264 264 264 264 264 264 264 265 265 265 265 265 266 266 267 267 268 268 269 269 270 275 276 277 277 277 273 273 274 275 275 277 277 278 278 279 280 284 286 287 288 288 289 289 288 285 284 283 283 283 285
278 278 277 274 274 273 273 272 272 271 271 269 268 267 267 267 266 266 266 267 266 266 265 264 264 263 263 262 262 262 263 262 262 262 262 262 262 262 262 262 263 262 262 262 262 263 263 264 265 266 266 266 268 271 268 272 274 275 276 277 273 272 273 273 274 275 276 277 278 279 279 282 285 286 287 288 289 289 289 286 285 287 287 287 284
275 274 274 273 271 271 271 270 270 269 269 268 265 265 265 265 264 265 265 265 265 264 263 262 262 261 261 261 261 261 261 261 261 261 261 260 261 261 261 261 261 260 260 260 261 261 262 262 263 264 264 265 266 267 271 269 272 274 275 276 276 275 278 276 275 275 276 277 278 279 280 283 284 285 286 287 288 288 288 287 288 288 287 287 286
273 273 272 271 270 269 268 268 268 268 266 266 264 263 263 263 263 264 264 264 263 262 261 261 260 260 260 260 260 260 260 260 260 260 260 259 259 259 260 260 260 260 260 260 260 261 261 261 261 262 263 265 266 266 269 271 270 273 274 275 276 277 278 275 275 276 277 278 278 279 280 283 284 285 286 286 287 287 286 288 289 288 288 287 285
272 271 270 269 268 267 267 266 267 265 265 264 262 262 262 261 262 263 262 262 261 261 260 259 259 259 259 259 259 259 259 259 259 259 259 259 259 259 259 259 259 259 259 259 259 260 260 260 261 261 262 263 265 266 266 268 271 272 274 275 276 277 278 279 277 277 278 279 281 283 283 283 284 284 285 286 286 286 287 288 288 288 287 285 284
269 268 268 266 265 264 263 263 264 264 263 262 261 260 259 261 262 262 261 261 260 259 259 258 258 259 259 259 258 259 259 259 259 259 259 259 259 259 259 259 259 259 259 259 259 259 259 260 260 260 261 262 263 265 265 266 267 268 269 271 272 273 274 277 278 278 281 283 283 284 284 284 284 284 283 282 282 283 286 286 287 287 286 285 284
267 267 266 265 263 263 263 262 262 262 261 261 259 260 261 261 261 261 261 260 258 258 258 258 258 258 258 258 258 258 258 259 259 259 259 259 259 259 259 259 259 258 258 258 259 259 259 259 259 259 260 261 261 262 263 263 264 265 265 266 267 269 272 274 273 273 277 278 280 282 282 284 283 284 284 283 284 284 283 284 284 285 285 285 284
266 266 264 262 262 261 261 261 261 261 261 260 259 259 260 260 260 260 259 259 258 258 258 258 258 258 258 258 258 259 259 258 258 258 258 258 259 259 258 258 258 258 258 258 258 258 259 259 258 259 259 259 260 261 261 262 263 263 264 266 267 268 270 271 273 274 275 277 278 281 281 281 280 280 281 281 282 281 281 282 282 283 284 284 284
265 264 263 261 261 260 260 259 260 260 259 259 258 259 259 259 260 259 259 258 258 258 258 257 258 258 257 258 258 258 258 258 258 258 258 258 258 258 258 259 260 260 260 259 259 260 260 261 260 260 260 260 261 261 262 267 266 269 267 267 267 268 269 270 273 275 274 276 277 276 276 276 276 277 278 279 280 280 281 282 282 282 283 283 283
264 262 261 260 260 259 259 258 259 259 258 258 258 258 259 259 259 258 258 257 258 258 257 257 258 257 257 257 257 257 257 257 257 257 257 258 261 265 264 262 261 266 269 270 269 264 264 264 264 265 265 263 263 265 270 272 273 273 274 274 274 275 275 274 275 277 276 274 274 275 275 275 275 276 276 278 279 279 280 280 281 282 282 281 281
262 260 260 259 258 259 258 257 258 258 257 257 258 258 258 258 259 259 258 258 257 257 257 257 257 257 257 257 257 257 257 257 257 257 257 257 257 259 265 267 268 268 268 270 270 271 271 271 268 265 267 271 272 273 273 273 273 273 273 274 274 274 275 275 276 273 272 273 273 274 275 276 276 276 276 277 278 279 279 279 279 280 281 280 280
Wind_Speed
7 9 11 11 11 10 9 9 9 9 10 11 11 12 11 10 10 10 6 5 5 4 4 3 2 2 2 1 0 1 1 1 0 1 1 1 3 4 4 4 4 4 5 5 6 6 7 6 7 7 8 8 8 8 7 7 6 7 7 6 8 6 5 6 7 9 9 4 5 3 2 1 1 0 1 2 3 4 4 4 3 4 4 3 3
9 11 12 11 11 10 9 9 9 12 12 11 11 11 10 10 10 9 10 9 8 7 4 3 2 1 1 0 1 1 2 2 1 0 1 2 3 4 4 4 5 5 5 5 6 6 6 6 7 8 8 8 8 7 7 7 6 6 6 5 5 8 6 8 9 11 2 7 6 2 1 0 1 2 2 3 3 4 5 4 5 5 5 4 3
10 10 9 10 10 10 8 9 9 9 9 11 10 11 12 11 10 10 11 10 10 9 9 7 8 8 8 6 6 3 6 5 5 4 4 5 5 4 3 2 2 2 4 4 5 5 6 6 7 7 7 8 8 8 8 8 8 9 8 8 6 3 3 5 10 9 7 5 4 6 2 1 2 2 3 4 4 4 4 4 4 5 6 5 5
10 10 10 9 9 9 9 10 9 9 10 11 12 11 10 11 11 11 10 10 9 10 9 6 7 6 6 7 6 6 4 4 5 5 5 5 4 3 2 1 1 2 2 4 4 4 6 7 6 7 7 7 8 8 8 10 9 9 9 8 7 6 4 6 8 8 6 11 4 6 4 4 2 7 7 4 5 4 4 4 3 4 4 4 4
7 9 9 10 11 11 11 9 8 10 11 11 11 11 9 11 11 10 9 10 8 10 10 6 6 4 3 3 3 2 2 3 3 2 3 2 2 2 2 1 1 2 3 4 4 4 4 4 5 6 7 7 7 7 8 9 9 10 11 10 11 11 9 5 6 7 7 9 8 5 2 2 6 3 6 2 4 4 4 5 4 4 4 4 5
7 9 9 9 10 10 10 10 11 11 12 11 10 11 10 10 9 9 9 9 9 9 10 8 7 8 7 7 6 3 2 1 1 0 2 3 3 1 2 3 2 2 2 4 4 3 4 4 4 4 5 6 6 7 7 6 7 9 10 10 11 10 11 8 7 8 8 8 5 3 8 7 6 4 6 4 1 3 4 4 5 5 4 4 4
7 8 9 10 10 10 10 11 10 11 11 8 9 10 12 10 9 8 8 8 9 9 9 8 8 7 5 4 4 4 4 4 3 4 5 3 2 1 1 1 1 2 2 2 4 4 4 4 4 4 4 5 5 6 6 7 8 9 8 9 10 9 8 10 12 11 8 7 7 7 1 1 5 9 5 5 1 3 3 4 4 4 5 5 5
4 8 9 8 9 9 9 9 10 11 9 10 11 11 12 12 10 10 8 9 9 9 9 9 7 7 7 6 6 6 5 4 4 3 3 3 3 1 0 1 1 1 2 3 3 3 4 4 4 4 4 4 5 6 7 6 6 6 8 9 9 9 11 11 10 10 14 11 10 8 4 2 3 1 5 10 7 6 6 3 3 6 4 5 6
5 7 8 8 8 10 8 8 8 9 10 11 11 10 10 10 10 10 11 10 10 11 10 10 9 8 7 6 6 6 6 5 5 6 5 3 1 1 1 1 1 2 2 3 3 3 3 4 4 4 4 5 4 5 5 5 6 6 7 8 9 9 9 9 9 10 11 11 8 7 4 6 4 4 3 5 5 5 3 8 6 1 4 6 7
4 7 8 8 9 8 6 5 7 9 9 9 9 9 9 9 11 11 12 10 10 11 10 10 9 8 7 7 6 6 6 7 6 6 5 5 5 2 1 2 2 2 2 3 3 3 3 3 4 4 4 5 4 5 5 5 6 6 7 9 9 10 8 9 11 8 10 9 11 9 9 4 3 4 4 4 1 4 8 9 9 11 9 9 7
5 9 9 7 5 6 5 8 8 9 9 10 10 9 8 8 9 12 11 10 10 10 10 10 9 8 7 7 6 6 6 6 6 6 6 6 5 5 4 4 2 2 3 3 3 4 4 3 4 4 4 4 5 4 5 6 6 6 6 7 8 10 9 9 8 7 8 10 10 9 11 12 13 11 10 7 7 4 3 4 6 10 12 5 8
5 6 6 6 5 7 7 9 9 9 10 10 9 7 7 7 9 11 12 11 10 10 10 11 9 9 8 8 8 7 7 6 6 6 7 6 6 6 6 6 6 3 1 2 3 4 4 4 4 4 4 4 5 5 5 5 6 5 5 5 6 8 8 9 9 10 8 8 11 9 10 10 9 8 8 10 10 8 9 8 9 5 2 6 2
4 6 6 5 5 5 6 6 7 8 9 9 9 7 7 9 11 12 12 10 10 9 10 10 10 9 9 9 8 7 7 7 6 7 6 7 7 6 7 7 6 7 7 3 4 4 4 4 4 5 5 5 5 4 5 5 5 6 6 5 6 7 8 9 9 10 10 9 9 9 9 9 11 8 7 8 7 7 8 7 6 8 7 6 4
5 6 5 4 4 4 4 5 5 5 5 4 6 8 9 10 11 12 10 10 9 9 9 9 9 9 8 8 8 7 8 7 7 7 7 6 6 6 6 6 6 5 6 6 6 4 3 4 5 5 5 5 4 5 5 5 5 5 5 6 6 7 6 9 10 10 9 10 7 8 9 9 10 8 8 7 8 8 7 9 8 4 2 6 1
5 6 5 5 4 4 3 2 1 0 2 4 7 9 8 9 11 11 11 11 11 10 9 10 8 8 8 8 8 7 7 7 7 7 7 7 7 7 6 6 6 6 6 6 6 7 4 4 4 5 5 5 5 4 5 4 4 4 5 6 6 5 7 8 9 9 11 10 7 8 8 8 8 8 9 9 8 10 9 8 10 9 1 2 4
5 5 4 3 2 1 1 0 0 3 5 6 7 7 8 8 8 8 8 8 9 9 9 8 8 8 8 9 9 8 7 6 7 7 7 7 8 8 8 8 8 7 7 6 6 6 6 4 4 4 5 5 5 5 5 4 5 5 5 5 6 4 6 7 8 8 11 11 10 8 7 8 7 8 9 9 8 8 8 7 10 11 11 6 3
4 4 3 2 1 1 1 2 4 4 5 7 7 8 9 8 7 7 6 6 7 7 8 8 8 8 9 9 9 9 9 9 8 9 8 7 6 6 6 7 7 7 7 6 7 6 6 5 5 6 5 5 5 5 5 5 4 4 5 5 6 6 6 6 7 8 8 8 9 10 10 7 7 6 8 8 9 8 8 9 11 13 11 11 8
3 3 2 2 1 2 2 3 4 4 5 6 7 6 5 6 5 5 5 6 5 4 4 5 6 7 8 9 9 8 8 8 8 9 8 8 8 7 7 7 7 7 7 7 7 8 7 7 6 7 7 6 5 5 5 4 4 4 4 5 6 5 6 6 6 6 8 7 8 9 9 9 7 6 8 7 8 9 8 8 10 10 11 14 10
2 1 1 0 1 1 2 3 4 4 4 4 5 5 5 5 5 5 6 6 5 5 5 4 4 4 6 7 8 9 9 8 7 7 7 8 9 9 9 8 8 8 8 8 8 7 7 7 5 6 7 7 6 5 5 5 4 4 4 6 5 5 6 7 7 6 7 7 8 10 8 9 7 8 8 7 7 7 8 7 8 9 9 12 11
1 1 2 1 1 2 2 3 3 3 3 4 4 3 4 3 4 4 5 5 5 6 5 5 4 4 4 5 5 6 7 7 7 7 9 8 8 8 8 9 10 9 8 8 7 7 7 7 6 6 6 6 6 5 5 5 4 4 5 6 6 5 6 7 7 7 6 6 8 9 9 8 7 7 9 8 8 8 7 7 7 8 8 8 9
3 4 3 2 2 3 1 1 1 1 1 2 2 3 3 4 4 4 5 5 5 5 5 5 5 5 3 4 4 4 5 5 6 5 6 6 7 7 7 7 7 8 8 9 9 9 9 8 8 8 7 7 7 7 5 4 4 5 5 5 5 5 6 7 6 8 7 6 8 9 10 9 6 8 9 9 8 8 7 7 7 6 7 7 8
4 4 4 2 3 2 3 2 2 2 1 2 1 2 1 2 2 3 4 4 4 5 4 5 5 5 5 3 2 2 3 4 4 4 5 5 5 5 5 6 6 7 6 7 7 6 6 8 7 8 8 8 8 8 7 6 6 6 5 5 5 6 7 7 6 8 8 7 8 10 10 8 7 10 11 11 10 9 7 9 8 8 8 8 8
4 3 1 2 2 2 2 2 2 3 2 2 1 1 1 1 2 2 4 4 4 4 4 4 4 4 5 4 4 4 3 5 5 5 5 5 4 5 5 5 6 7 7 7 7 7 7 6 6 6 6 6 6 6 7 6 6 6 7 6 6 6 7 8 8 9 9 8 9 10 10 7 6 9 11 11 9 9 8 9 11 8 10 9 8
4 3 3 3 3 1 3 4 3 2 3 1 1 1 1 2 2 2 4 4 5 4 5 5 4 4 5 4 4 4 4 4 4 4 5 5 5 4 4 4 5 6 7 8 7 7 6 6 6 6 6 6 6 5 5 5 6 6 7 8 7 7 7 8 9 9 9 9 10 10 10 7 7 11 12 10 9 9 9 10 11 10 10 11 8
3 4 3 3 3 3 3 3 1 2 1 1 1 1 1 1 2 1 1 1 4 4 5 5 5 5 5 4 4 4 4 4 4 3 4 4 4 5 4 4 4 4 4 5 7 6 6 7 7 7 7 7 6 6 6 6 5 5 6 7 7 7 7 8 9 9 9 10 10 11 10 7 8 12 12 10 9 9 10 10 11 11 11 10 8
3 4 3 2 2 1 2 1 1 2 1 1 2 2 1 1 1 0 0 0 2 1 3 3 4 4 5 5 5 5 5 5 5 4 5 5 5 4 4 4 5 5 5 4 5 5 5 7 7 7 7 7 7 6 7 7 7 6 6 7 7 7 8 8 8 8 9 9 10 11 10 9 10 12 12 9 9 12 11 12 13 12 10 9 10
2 2 1 1 0 0 1 0 1 0 1 1 1 1 1 1 1 1 1 0 2 1 4 4 4 4 4 5 4 4 5 5 5 4 4 4 5 6 7 8 8 7 7 7 6 7 6 6 8 7 7 8 7 7 8 8 8 7 7 7 8 7 8 8 8 9 10 10 11 10 10 10 12 12 12 10 10 11 11 13 13 12 10 10 11
2 0 0 1 0 0 0 1 1 1 1 1 0 0 0 0 1 1 1 1 1 2 4 4 5 5 5 6 6 6 6 6 5 4 4 4 4 4 4 5 5 7 7 7 7 7 7 6 8 7 8 8 8 7 7 8 8 8 8 8 8 8 8 9 9 9 10 10 11 11 10 10 11 12 11 11 10 11 10 11 11 10 10 11 12
4 4 3 3 3 3 3 2 2 1 2 3 2 2 3 3 3 4 4 4 1 3 4 4 5 5 5 5 5 6 7 9 10 9 9 7 6 6 5 6 5 7 7 7 7 7 8 8 7 7 8 7 7 8 7 7 8 9 8 9 9 10 10 10 10 10 10 10 10 10 11 11 12 15 17 15 14 13 10 12 12 10 10 11 11
5 5 5 5 5 5 5 4 4 4 3 4 3 3 3 3 4 4 4 5 2 3 4 5 6 7 7 6 7 7 8 8 9 10 10 9 9 9 8 7 8 7 7 7 7 8 7 8 10 9 8 7 8 7 10 15 14 10 9 9 9 9 10 10 11 11 10 10 11 11 10 15 17 18 18 19 20 20 20 16 12 9 11 11 12
5 5 5 5 5 5 5 4 5 5 5 5 4 4 5 5 4 4 5 5 4 3 4 5 6 6 6 6 6 7 8 9 9 8 8 8 10 9 9 9 9 8 9 8 8 8 9 8 10 10 10 9 8 9 14 16 18 20 13 10 10 10 9 11 11 11 12 11 10 11 10 12 14 16 16 19 20 22 22 23 22 18 15 14 13
4 5 5 5 5 5 5 5 5 5 4 4 4 5 5 5 4 4 5 4 3 4 5 6 6 6 6 6 6 7 8 9 8 8 9 9 9 9 9 10 10 11 10 9 11 10 10 9 9 10 10 11 10 11 18 19 20 21 18 13 10 10 10 10 11 12 11 11 11 11 10 9 10 11 11 12 16 21 22 22 22 22 22 23 20
4 5 5 5 6 5 6 5 5 5 5 5 4 4 4 4 3 4 3 2 4 4 5 6 7 7 7 7 7 8 8 9 9 9 9 9 9 10 10 10 11 9 10 12 13 13 13 12 11 11 11 11 11 13 19 21 21 22 22 18 11 11 11 11 12 12 12 12 11 11 10 10 9 14 13 12 12 12 16 21 21 22 23 25 25
4 4 4 5 5 5 5 5 5 5 4 2 1 1 3 3 2 1 1 2 4 5 6 7 8 8 8 7 8 7 9 10 10 10 9 10 10 11 10 8 8 9 10 12 13 14 14 14 14 13 13 13 14 15 22 22 23 24 25 21 12 13 13 13 13 13 12 12 12 12 11 11 10 10 10 11 11 11 11 11 12 14 15 19 23
4 4 5 4 4 5 4 4 3 0 1 2 3 2 1 2 2 3 3 4 4 6 7 8 9 9 8 7 8 8 9 10 10 10 10 11 11 11 11 9 8 9 11 12 13 14 15 15 15 15 14 16 15 21 22 23 23 25 25 22 13 13 13 13 13 13 13 14 13 13 13 13 12 11 10 11 11 10 10 10 11 13 14 15 14
4 4 5 5 5 5 5 1 3 5 4 3 3 2 3 2 3 4 4 4 4 6 8 8 9 8 8 8 8 9 10 11 11 10 10 11 11 11 12 11 10 11 11 11 13 12 14 16 16 16 16 17 17 25 26 25 25 24 26 15 13 14 14 14 14 13 13 13 13 13 13 14 14 13 14 19 16 11 10 12 14 14 13 13 14
4 4 5 4 3 4 6 5 4 4 3 3 3 4 4 4 4 4 4 5 5 6 8 8 8 9 9 9 9 10 12 12 11 11 11 12 13 14 13 10 12 13 14 14 14 14 14 15 17 17 18 18 18 23 27 28 27 27 20 12 13 13 13 14 15 14 13 13 13 13 14 13 14 14 15 18 19 18 12 14 14 14 13 12 14
3 4 4 6 5 4 4 5 4 4 4 5 5 6 5 4 4 5 5 6 5 7 8 8 8 8 9 9 9 10 11 11 11 12 14 13 13 12 12 11 13 14 15 15 14 15 16 16 18 19 18 18 18 22 29 29 30 30 24 16 14 14 15 15 15 15 14 13 15 21 19 15 15 14 15 19 20 17 13 14 15 15 15 15 16
1 3 4 4 4 4 4 4 4 4 6 6 6 6 6 5 4 5 5 6 7 8 7 8 10 10 10 9 9 10 10 11 12 12 12 14 14 14 14 13 13 13 15 15 15 15 17 16 16 18 21 22 20 21 29 31 32 31 25 16 15 14 15 15 15 16 15 14 14 16 22 20 17 16 20 20 22 19 14 14 15 14 15 17 18
5 3 3 2 2 5 5 5 5 5 4 5 5 5 4 5 6 5 6 7 8 8 9 10 10 10 10 9 9 10 11 12 13 14 14 14 13 13 13 13 14 13 15 15 16 15 18 18 17 17 17 18 20 20 22 33 32 33 34 22 16 16 18 19 18 16 16 14 14 14 15 20 25 25 24 24 24 23 16 15 13 13 15 20 14
3 3 3 3 4 5 4 3 4 5 5 4 4 4 5 5 6 7 7 9 9 10 10 10 10 10 10 10 10 9 12 12 11 12 13 13 11 12 14 14 14 14 15 16 17 17 18 19 19 19 18 20 18 20 23 34 35 35 36 31 19 19 19 19 18 18 16 16 15 14 13 16 23 24 25 26 26 26 24 17 15 14 16 17 12
4 5 5 4 4 3 4 4 4 6 4 4 4 5 6 7 7 9 8 9 10 10 10 10 11 11 11 11 10 10 10 10 11 11 13 14 12 12 13 14 13 13 16 18 17 17 16 18 17 18 16 18 20 28 23 30 36 37 37 39 25 22 24 21 22 20 19 17 17 15 14 14 20 23 24 24 27 26 27 18 17 20 22 22 13
2 3 5 4 3 3 4 4 4 4 4 4 5 6 6 7 9 10 9 9 9 10 11 11 12 12 12 12 11 11 11 9 10 11 13 15 13 12 13 12 13 14 15 16 16 15 15 16 16 14 14 15 16 17 28 26 32 35 36 37 39 32 36 26 21 21 21 19 17 17 16 19 20 22 23 25 25 27 23 18 22 24 23 23 17
4 5 4 4 3 3 3 3 3 3 4 4 5 7 8 9 11 8 9 8 9 10 10 12 12 12 13 12 12 11 11 10 11 12 12 13 13 12 12 11 11 12 12 14 13 12 14 15 16 16 13 12 12 13 19 28 26 33 33 35 36 38 38 27 23 21 20 19 18 18 15 18 22 23 25 26 25 24 16 22 24 26 24 21 14
4 4 4 4 3 3 3 4 3 3 4 4 4 6 9 10 9 8 9 10 11 11 11 12 13 13 13 12 12 11 12 11 11 11 12 12 13 11 12 10 10 11 12 13 13 12 13 14 15 16 14 12 11 13 13 18 27 29 33 33 34 35 34 35 26 20 21 20 20 25 24 24 23 24 26 26 23 25 28 25 25 25 24 15 14
3 3 4 3 3 2 3 4 4 3 4 3 4 4 8 10 9 9 10 10 11 12 13 13 13 12 13 13 15 14 12 12 12 10 10 10 11 12 11 11 11 12 12 13 14 13 13 13 15 14 13 13 12 11 12 14 19 25 26 33 37 38 37 35 32 25 29 31 31 29 31 29 25 23 18 15 13 14 20 25 25 24 16 14 13
3 3 4 4 4 5 5 5 7 4 4 4 4 4 6 8 9 9 10 10 10 12 13 13 13 13 13 12 14 12 12 11 9 10 9 9 11 11 12 12 12 13 13 13 14 14 14 14 15 14 14 14 12 11 12 14 12 14 15 18 20 21 28 30 21 18 20 19 23 25 21 23 21 24 23 20 19 15 15 15 14 14 14 14 13
3 2 2 2 3 5 6 6 7 7 5 5 5 5 7 7 8 9 9 10 11 11 12 13 14 13 12 12 12 13 14 12 11 11 12 11 10 10 12 12 12 13 13 15 14 15 15 15 16 15 15 15 13 13 11 12 14 14 13 14 14 16 15 15 15 15 15 16 15 15 19 15 13 13 14 12 13 13 13 12 12 12 12 13 15
2 1 2 4 4 5 5 6 7 6 6 6 6 6 7 8 9 9 9 10 12 12 12 13 13 12 12 11 11 11 12 13 13 12 11 11 12 12 13 14 13 12 13 14 14 15 15 15 14 14 15 17 15 14 12 15 18 22 21 17 14 13 13 15 22 30 24 18 12 11 10 11 11 12 12 12 12 12 12 13 14 12 12 12 12
1 2 3 4 3 3 5 7 7 5 6 6 7 8 8 8 8 8 9 10 12 12 12 12 11 11 12 11 11 12 12 12 12 13 13 12 14 23 20 16 15 21 31 33 28 20 18 16 17 15 13 16 16 15 26 34 35 35 35 35 33 32 30 25 29 37 27 18 15 14 13 13 12 11 12 12 13 12 12 12 12 14 13 12 12
3 4 4 3 4 4 5 6 7 5 6 7 8 9 9 8 8 8 9 10 11 12 12 11 11 11 12 13 13 13 12 11 12 12 12 13 13 12 21 28 28 28 29 31 31 34 36 33 24 20 21 33 36 37 36 33 33 33 33 33 33 32 33 32 32 24 19 15 14 14 13 11 12 11 11 11 11 12 12 12 12 11 11 12 13
Wind_Direction
37 36 38 29 24 19 22 23 23 24 24 18 23 21 18 16 13 11 6 40 43 62 57 67 67 30 36 66 101 143 151 104 206 309 323 187 120 99 109 108 144 169 175 165 176 169 175 167 154 164 163 165 168 181 178 183 181 175 172 174 167 161 166 147 148 130 124 81 63 82 57 49 52 346 175 140 141 155 162 167 175 140 150 150 167
35 34 30 29 23 21 21 28 25 30 21 19 24 22 16 12 18 16 17 22 26 31 47 62 74 116 134 167 141 99 89 89 49 6 351 49 70 91 119 135 159 172 175 174 182 177 178 175 167 169 167 174 178 172 174 177 173 174 162 174 192 168 176 163 161 123 157 161 146 149 31 4 226 273 234 213 184 185 186 175 173 159 162 171 156
38 34 30 30 24 23 25 29 31 32 26 26 23 26 20 16 18 26 24 26 23 24 30 27 27 27 41 26 38 42 50 60 59 34 32 36 46 53 63 76 120 163 181 182 187 192 186 180 182 175 178 171 168 176 177 180 180 178 174 174 186 200 152 177 168 175 153 131 117 97 198 138 302 305 270 224 192 203 185 174 176 163 171 167 163
39 31 27 26 25 22 29 31 30 27 29 29 28 28 26 20 20 24 25 23 25 20 18 25 52 49 44 42 47 62 63 47 63 56 46 44 43 44 30 62 123 176 195 203 205 205 199 195 182 172 183 178 178 181 183 187 180 179 176 181 165 173 185 196 197 184 142 138 169 195 185 139 266 242 205 231 186 197 175 187 164 168 171 179 166
35 34 29 27 26 22 24 31 30 38 33 32 29 28 28 24 22 22 24 22 20 23 17 12 35 39 45 30 37 41 38 71 80 84 112 123 113 130 228 185 184 187 196 211 211 219 222 211 195 182 183 186 180 186 190 195 192 188 183 176 179 181 194 183 212 204 199 197 146 122 101 214 214 197 142 254 183 194 202 186 183 167 180 191 186
40 38 36 32 31 22 17 22 32 35 35 29 28 31 27 26 25 22 22 21 19 22 21 14 38 40 32 30 20 6 359 17 42 92 163 163 198 205 176 180 203 212 198 207 221 227 234 232 222 192 191 190 190 193 194 191 196 195 194 188 191 193 182 167 191 224 214 223 226 208 155 174 172 175 127 228 171 210 195 204 190 185 179 192 214
24 37 36 34 33 31 19 19 25 38 36 27 32 33 31 28 25 23 23 22 18 19 23 23 31 29 39 40 31 32 19 357 21 42 36 23 77 69 166 176 220 216 248 209 209 221 230 239 236 225 203 197 197 198 201 201 201 202 194 196 198 195 173 185 189 196 216 245 236 236 172 161 152 133 198 98 181 283 222 211 218 201 186 189 208
43 42 33 32 33 38 27 9 20 35 34 36 35 30 29 28 27 25 24 24 22 17 23 23 27 25 34 29 26 29 16 4 8 29 56 57 32 14 58 235 242 249 259 268 239 221 219 232 231 237 233 217 200 208 211 213 209 210 203 204 202 199 197 195 193 188 192 214 217 229 206 156 208 178 152 166 157 162 227 236 228 202 202 208 201
67 59 49 29 26 30 25 17 13 25 32 38 38 32 29 27 28 28 30 28 22 20 24 21 24 28 35 25 23 11 8 357 359 13 21 56 41 4 1 322 246 253 261 265 268 250 227 231 236 231 228 232 213 217 221 219 216 204 206 208 208 212 209 205 189 198 198 205 195 228 201 210 220 219 156 145 140 133 196 185 206 199 215 229 215
55 63 56 40 26 24 19 7 21 26 30 38 40 35 32 31 33 32 32 29 23 22 23 24 21 21 26 23 30 14 4 355 5 6 14 8 10 351 301 293 286 231 243 267 276 261 245 234 237 236 236 237 231 222 223 225 227 221 210 209 210 215 216 211 210 200 203 202 202 192 194 174 212 249 233 193 179 167 168 193 187 175 195 226 191
51 53 45 44 27 22 13 27 24 25 27 35 36 35 29 30 33 39 33 30 26 28 25 23 20 17 23 19 20 20 7 10 4 0 4 9 1 347 344 315 286 245 207 237 247 259 254 244 231 239 242 239 234 235 233 227 227 225 220 215 213 214 217 222 226 217 200 206 205 196 202 193 194 191 196 198 181 166 95 183 182 193 197 188 214
62 62 55 35 25 17 18 25 24 20 23 29 32 30 32 30 35 42 35 29 27 24 28 28 25 19 18 14 14 12 14 12 4 9 7 5 2 359 350 357 341 320 244 209 239 245 239 250 248 245 249 248 245 235 237 234 231 234 230 219 222 222 222 223 226 226 214 209 211 208 210 209 216 208 196 190 188 195 174 177 177 173 239 223 192
76 69 56 39 34 23 20 19 18 22 20 21 27 28 29 31 33 38 32 26 24 22 27 26 27 25 21 19 16 9 6 10 5 15 4 4 360 360 358 354 349 353 338 314 270 234 226 238 251 244 246 242 243 245 245 240 236 232 230 229 221 219 221 224 227 229 223 214 212 215 212 209 215 213 194 197 203 182 158 143 206 171 175 183 199
80 73 66 57 39 34 27 24 23 16 14 19 33 36 30 32 30 32 28 21 18 20 20 23 26 24 20 22 21 16 12 14 13 11 1 359 358 356 351 348 347 338 338 337 323 287 237 228 231 242 240 239 232 236 240 243 238 234 237 239 232 228 224 228 233 235 236 234 218 217 218 213 217 207 205 189 190 178 190 169 159 200 127 174 143
74 74 68 56 50 39 33 31 41 232 32 37 40 36 35 33 29 27 22 15 16 15 13 15 16 17 19 20 23 19 16 16 13 8 4 3 355 354 349 345 350 333 336 327 335 342 302 257 247 251 262 258 252 247 242 241 242 241 240 245 246 234 232 229 234 234 239 241 238 227 223 221 216 206 204 211 190 198 192 174 157 156 117 141 179
66 68 70 70 69 69 39 1 6 30 37 41 43 43 41 38 35 33 28 17 15 15 14 10 7 8 13 17 16 17 14 15 14 9 11 11 3 5 356 352 345 341 337 339 334 337 331 308 289 276 272 271 265 253 248 242 237 236 246 249 253 244 241 237 237 235 240 241 242 244 237 234 218 210 211 212 206 201 196 179 176 172 168 204 209
74 80 94 75 49 57 60 43 30 34 38 40 42 38 39 34 32 26 24 19 18 14 14 9 5 12 9 11 11 11 13 14 12 8 9 5 7 5 1 351 346 345 336 335 333 334 332 328 318 304 293 279 273 267 258 252 244 236 235 242 249 251 247 245 242 237 242 240 243 242 242 242 234 228 221 216 212 206 205 191 186 186 186 189 183
97 98 85 86 80 44 44 43 51 49 45 43 45 41 44 45 33 34 25 22 6 14 16 14 11 11 9 9 8 11 13 8 6 8 2 7 6 9 2 0 355 344 344 338 337 333 328 326 321 309 296 293 284 278 271 262 259 253 242 242 241 242 250 256 248 243 244 239 244 246 243 246 239 235 234 227 220 215 208 199 200 201 186 201 186
107 102 93 139 91 53 33 36 37 41 45 54 49 48 42 39 28 34 29 18 8 6 3 7 25 18 15 8 5 4 5 5 1 6 3 7 4 1 1 355 347 347 349 345 341 335 327 317 313 304 300 291 287 281 275 273 260 259 257 254 258 250 248 251 249 241 244 235 241 245 244 245 237 241 245 241 239 229 222 207 208 202 203 207 184
177 170 186 201 139 102 73 45 37 33 35 36 46 48 46 40 34 27 14 8 10 4 4 359 356 24 18 13 4 8 1 359 352 0 1 2 356 356 352 354 347 342 345 343 340 338 334 331 323 315 307 299 290 279 272 265 264 254 251 252 253 250 253 253 256 246 242 235 239 244 242 241 238 238 245 240 241 239 228 225 213 207 212 208 178
189 196 189 172 151 118 109 116 59 63 36 49 44 33 38 33 26 18 23 357 8 348 358 344 349 337 6 360 354 356 352 349 352 354 4 347 349 349 346 343 337 340 341 341 341 339 336 334 331 328 321 314 307 296 285 270 259 257 253 244 250 248 250 255 253 257 251 242 242 243 244 241 230 232 240 241 239 237 236 234 230 212 214 210 183
179 188 189 173 154 156 158 156 142 108 60 89 85 102 60 67 50 17 22 359 15 346 352 339 345 346 342 321 300 308 319 332 353 341 1 344 344 341 332 339 338 326 335 326 326 324 327 326 327 323 321 316 314 309 301 297 285 278 271 256 252 248 252 253 248 253 252 250 245 245 245 239 228 234 238 239 234 235 228 231 233 221 221 216 208
189 170 169 159 132 142 130 121 108 91 78 80 58 81 94 86 68 21 32 344 360 336 337 336 342 342 331 348 347 332 346 335 350 328 346 327 331 328 332 338 325 326 325 324 319 320 320 320 317 315 314 313 309 308 305 299 288 275 269 266 256 250 249 251 250 249 248 246 249 247 247 235 228 238 240 239 235 234 228 228 232 221 227 224 215
179 164 163 141 129 115 85 72 60 59 60 15 50 67 57 63 71 40 18 352 356 347 343 345 345 338 328 344 336 326 355 339 352 327 341 322 318 308 307 322 311 317 320 316 316 313 316 315 315 314 317 315 314 308 306 301 289 278 270 263 258 251 246 246 247 249 247 245 246 250 247 237 230 238 239 236 234 232 232 231 233 227 225 226 216
130 104 77 63 68 68 71 86 85 89 89 17 69 60 57 59 57 49 23 346 348 338 350 335 344 343 336 342 332 331 331 323 317 313 313 307 308 305 302 296 288 283 285 299 302 308 311 315 315 316 317 317 313 310 307 300 290 281 273 269 264 257 252 249 248 249 246 244 245 246 247 231 230 240 241 234 227 232 233 233 234 231 228 225 218
105 91 75 61 60 66 75 66 70 54 61 15 18 24 35 57 37 305 139 294 308 330 324 325 321 334 323 328 328 337 329 320 311 314 317 317 311 306 299 291 286 286 282 281 287 294 300 303 304 305 305 303 305 306 303 297 292 287 280 273 268 263 261 257 257 256 254 249 249 247 244 235 236 239 243 237 226 229 230 233 235 234 230 225 223
146 132 142 128 174 144 127 110 118 119 80 85 63 32 8 40 10 341 335 39 315 359 332 337 321 327 320 313 314 312 307 308 300 290 294 305 307 312 321 318 315 310 308 306 302 300 297 297 298 300 300 297 300 301 301 298 295 291 286 283 278 272 268 267 264 264 261 257 254 252 246 239 240 241 244 238 232 233 228 230 231 233 227 224 225
124 113 183 239 240 287 350 315 354 316 323 337 309 64 102 230 298 282 302 336 318 6 340 340 336 335 330 324 324 320 317 306 290 278 282 283 283 283 287 292 298 300 296 292 294 297 294 294 290 291 291 295 293 293 291 292 290 288 287 286 283 279 276 271 269 264 261 259 258 256 252 247 244 246 244 241 231 236 233 236 230 223 221 224 228
173 208 220 218 229 230 238 243 251 267 279 282 297 310 324 324 319 316 321 314 305 2 335 330 327 318 307 303 311 315 315 317 316 316 312 307 300 295 295 296 297 298 294 290 289 289 296 295 287 283 287 284 284 283 282 281 284 285 283 281 282 280 278 277 274 269 263 260 258 255 255 252 249 249 246 243 238 232 233 238 234 221 217 218 225
203 205 209 212 209 211 215 218 224 229 238 257 260 259 254 251 266 276 291 282 314 314 324 322 316 308 307 311 310 310 308 308 310 307 306 306 307 305 301 299 296 289 286 287 289 289 289 292 294 290 281 278 277 275 273 274 274 274 274 275 275 275 274 275 276 276 269 261 258 257 252 250 250 249 248 247 246 241 236 233 233 218 217 219 217
207 209 215 211 208 210 212 216 224 225 230 230 232 235 241 244 252 262 265 266 266 279 294 292 287 282 287 292 298 295 298 298 293 293 294 296 297 300 301 302 301 300 299 297 292 292 289 287 288 287 285 280 276 274 269 267 271 274 275 273 271 271 269 269 271 271 272 269 263 257 256 252 249 249 249 248 246 245 243 240 236 228 219 216 216
223 222 218 214 212 213 216 220 222 222 222 226 234 239 239 244 251 255 252 262 272 269 271 271 270 278 281 285 284 286 287 285 286 286 288 287 286 289 293 297 301 305 306 305 301 294 290 286 283 280 278 277 276 266 269 271 272 273 271 269 266 267 266 265 262 264 265 267 266 264 258 253 248 245 245 244 244 245 245 244 242 237 232 228 220
245 243 229 216 211 214 217 221 223 225 221 223 214 219 234 241 255 252 262 289 282 278 278 279 278 279 280 281 284 284 284 283 282 280 279 280 280 283 287 292 294 299 306 306 303 304 300 296 288 283 279 275 274 268 270 270 272 273 272 271 267 262 263 262 260 259 260 262 263 263 265 256 251 246 243 242 243 243 242 243 244 242 238 235 232
271 269 256 235 222 218 218 216 217 224 219 214 193 200 238 238 237 283 345 316 319 306 298 291 290 286 285 283 282 281 281 281 282 283 282 281 282 280 279 279 287 297 298 299 301 300 298 297 295 292 289 285 279 270 271 270 269 269 270 269 262 262 261 257 255 253 253 256 254 256 259 261 256 248 241 241 240 240 241 238 240 240 241 240 238
303 315 319 311 277 250 241 248 254 241 45 26 346 320 328 359 4 353 329 323 314 303 300 296 293 292 292 288 285 285 285 286 287 287 287 285 287 289 287 286 288 289 291 292 293 295 292 292 291 289 288 286 282 280 277 274 272 270 267 268 265 263 261 257 253 250 248 248 250 250 250 254 257 252 245 239 239 237 234 234 234 234 236 239 237
293 295 291 291 293 280 265 264 66 51 22 12 307 336 37 340 354 339 323 324 319 307 295 292 290 293 295 295 298 298 296 296 295 294 293 295 298 296 296 296 293 290 285 285 282 280 283 284 283 284 283 281 280 280 281 279 276 273 271 267 263 260 260 259 256 254 249 247 247 246 247 249 248 248 248 245 240 237 234 233 233 233 234 235 237
277 268 264 278 322 30 48 52 31 30 0 335 8 22 8 351 342 333 344 323 312 297 292 292 293 297 300 303 307 306 303 301 303 304 304 303 302 299 295 295 292 289 286 284 281 281 281 280 281 279 276 275 276 278 279 280 280 279 276 271 266 263 259 257 256 255 253 251 248 243 243 245 245 245 241 240 239 235 236 234 235 236 234 234 239
275 308 12 45 51 47 41 47 28 12 6 26 23 21 8 355 340 332 322 304 298 289 291 295 296 304 307 309 309 308 307 308 309 303 301 300 300 299 297 299 293 292 288 285 284 283 279 276 276 275 272 272 272 273 275 277 279 280 280 276 270 264 258 256 257 254 253 252 248 245 242 242 244 244 237 235 234 232 235 235 236 236 236 236 239
305 91 79 32 34 57 53 44 32 11 26 32 25 18 2 331 316 313 306 300 296 295 302 306 308 311 311 312 314 313 309 308 306 306 309 307 305 303 299 298 293 290 286 287 283 280 278 275 271 271 272 272 272 273 274 276 278 280 281 278 277 274 271 263 259 257 253 249 249 248 245 243 241 241 238 236 232 229 230 233 234 233 236 237 238
100 97 100 89 53 52 35 26 26 43 29 27 17 4 339 315 311 310 307 303 304 310 312 312 313 313 315 316 318 316 312 312 310 308 306 299 298 299 299 299 297 294 290 288 285 283 283 281 280 277 276 273 275 275 275 277 277 277 277 277 275 274 269 267 263 261 259 251 246 246 242 241 243 241 238 236 235 229 226 230 230 230 234 241 236
117 102 75 60 57 66 56 52 57 31 21 14 15 353 326 320 315 315 311 310 315 317 315 316 317 315 314 313 312 309 306 304 301 299 298 296 297 297 297 295 293 292 290 289 289 290 287 284 282 279 277 275 272 276 276 276 275 275 274 274 273 269 269 269 269 264 257 256 251 244 244 235 239 243 242 239 236 235 230 228 227 227 228 236 224
106 85 70 62 55 48 44 36 29 20 16 14 5 345 326 326 323 315 311 318 320 319 319 317 314 311 310 307 304 301 297 296 297 297 295 292 291 290 289 292 291 292 293 290 290 289 287 283 282 281 280 281 281 279 280 280 279 277 276 274 271 268 266 266 265 261 258 254 250 248 245 234 233 238 242 241 240 237 232 229 227 226 230 232 219
54 49 55 58 39 43 32 17 7 4 21 4 2 339 328 323 316 310 318 321 320 320 317 314 310 307 306 303 301 298 298 297 293 291 289 288 291 291 288 288 289 289 287 288 287 287 284 281 282 278 278 278 279 281 282 282 282 282 280 278 274 272 269 265 259 257 255 252 250 249 245 239 233 233 237 241 242 240 237 230 226 228 228 227 217
82 93 73 54 39 26 358 350 347 11 12 12 2 335 324 318 307 316 321 321 320 316 311 306 305 305 304 302 301 299 297 295 292 291 286 286 288 288 286 286 287 286 288 288 287 287 286 285 287 287 283 277 275 275 280 284 286 287 287 284 281 276 270 264 259 257 258 253 251 249 243 235 235 235 238 240 240 239 233 234 230 227 226 223 218
89 84 71 54 31 349 336 320 331 8 0 1 7 334 316 309 308 326 322 320 314 311 308 306 306 305 304 304 302 300 299 295 291 288 289 290 287 286 287 287 286 285 283 282 283 284 283 286 286 285 286 285 284 284 282 285 289 291 291 291 291 289 284 276 268 260 253 252 248 247 243 239 236 235 238 240 241 239 236 234 231 227 225 222 220
69 58 40 30 4 342 321 313 318 344 347 353 346 339 311 304 317 319 314 310 309 309 307 305 305 303 304 305 303 301 295 290 289 286 282 284 287 292 290 290 287 282 282 282 285 284 282 282 282 284 285 287 289 287 293 297 300 298 300 301 299 296 293 289 285 275 266 260 255 248 246 245 241 236 238 238 240 234 231 232 232 228 224 221 217
72 49 31 3 355 330 326 325 321 333 342 337 327 312 296 303 309 307 307 306 306 305 303 303 303 304 303 302 298 299 300 299 295 294 290 290 291 288 287 287 284 283 282 281 282 282 283 280 278 279 279 278 276 273 277 279 278 281 282 284 288 290 291 291 288 284 282 273 268 266 258 251 247 245 242 240 238 233 235 234 234 229 224 219 217
78 46 52 5 341 324 317 322 318 324 329 324 315 306 301 301 300 302 303 304 303 303 303 305 305 304 301 301 299 298 299 301 301 299 298 295 286 282 283 281 283 282 283 281 278 277 277 276 276 276 277 275 273 271 265 269 271 271 270 272 276 282 284 285 287 280 270 264 261 260 260 258 254 252 248 241 237 232 228 226 225 224 222 218 219
18 24 33 346 320 316 311 318 313 319 317 310 305 301 303 302 300 302 304 303 302 303 301 300 301 300 299 301 299 300 299 299 298 294 285 284 290 287 280 276 265 259 262 268 271 270 266 265 264 270 276 275 273 270 264 261 263 268 274 274 267 268 274 282 284 288 293 293 277 260 255 254 246 245 243 239 234 229 225 222 222 220 219 216 214
28 12 338 317 313 319 319 312 306 311 306 306 305 303 299 298 300 299 301 302 304 305 304 302 302 300 301 301 301 298 297 296 294 294 294 284 270 283 287 288 288 284 285 286 286 286 285 286 284 278 271 280 284 282 286 287 288 289 288 285 284 281 279 278 281 284 284 283 281 273 251 240 237 233 235 234 231 226 224 220 220 220 219 215 212
338 330 314 314 319 321 311 306 303 309 305 305 304 300 299 298 298 298 301 300 302 303 302 300 302 301 300 302 301 298 295 292 291 292 291 292 295 283 284 288 288 290 291 290 291 291 292 293 292 294 292 291 293 295 297 297 295 294 291 289 287 286 285 284 284 286 287 279 272 269 266 248 235 228 228 233 230 228 223 222 220 216 217 216 215